fechar
X Fechar
X Fechar

X Fechar
foto
Salvar nos Favoritos

X Fechar
foto
Clique e saiba mais
Clique e saiba mais
Clique e saiba mais
Clique e saiba mais
Clique e saiba mais
Clique e saiba mais
Clique e saiba mais

América Sports

Capacete Companhia

RM - Motocross Racing

Edgers Racing

RX Graphics

JPS Racing

Ohlins

DLua Racing

Toro Sports

Clique e saiba mais

> Notícias > Últimas Notícias

Mundial MX: resultados e vídeos das classificatórias em Assen
Publicado em: 29/08/2015

Resultados das classificatórias do MXGP da Holanda, realizadas neste sábado em Assen
Redação MotoX.com.br


Largada MXGP








Resultados

P. Nac MXGP M Tempo Diff Gap Melhor Volta Last Lap
1 NL G. Coldenhoff (259) SUZ 24:09.280 +10:39.999 - 01:32.945 14: 01:40.379
2 BE J. V. Horebeek (89) YAM 24:15.472 +00:06.192 +00:06.192 01:34.332 14: 01:38.997
3 FR G. Paulin (21) HON 24:16.784 +00:07.504 +00:01.312 01:34.276 14: 01:38.868
4 FR R. Febvre (461) YAM 24:21.369 +00:12.089 +00:04.585 01:32.837 14: 01:42.074
5 GB S. Simpson (24) KTM 24:26.942 +00:17.662 +00:05.573 01:34.372 14: 01:44.352
6 RU E. Bobryshev (777) HON 24:33.861 +00:24.581 +00:06.919 01:34.672 14: 01:46.805
7 ZA T. Rattray (28) KAW 24:46.703 +00:37.423 +00:12.842 01:34.527 14: 01:46.553
8 AU D. Ferris (111) HUS 24:54.526 +00:45.246 +00:07.823 01:37.758 14: 01:41.814
9 AU T. Waters (47) HUS 24:57.546 +00:48.266 +00:03.020 01:37.390 14: 01:43.010
10 GB N. Watson (991) HUS 25:00.060 +00:50.780 +00:02.514 01:36.810 14: 01:41.009
11 SE F. Bengtsson (11) HON 25:04.815 +00:55.535 +00:04.755 01:37.031 14: 01:48.074
12 IT D. Guarneri (39) TM 25:19.916 +01:10.636 +00:15.101 01:37.690 14: 02:01.436
13 DE M. Nagl (12) HUS 25:25.066 +01:15.786 +00:05.150 01:38.809 14: 01:44.514
14 BE J. Delince (926) HON 25:39.333 +01:30.053 +00:14.267 01:40.855 14: 01:42.529
15 ES J. Butron (17) KTM 26:21.534 +02:12.254 +00:42.201 01:37.699 14: 02:16.205
16 NL M. Gijsbertsen (13) KAW 24:23.669 -1 lap -1 lap 01:40.932 13: 01:50.606
17 DE A. Heidecke (156) KTM 24:35.893 -1 lap -1 lap 01:41.154 13: 01:50.144
18 BE K. Wouts (185) KTM 24:51.845 -1 lap -1 lap 01:39.707 13: 01:46.564
19 PT R. Goncalves (999) HUS 24:53.286 -1 lap -1 lap 01:40.494 13: 01:44.392
20 DK N. Larsen (349) HUS 24:57.059 -1 lap -1 lap 01:43.165 13: 01:49.228
21 IE S. Edmonds (167) HON 25:32.517 -1 lap -1 lap 01:42.650 13: 01:53.831
22 FR L. Macler (952) SUZ 25:33.677 -1 lap -1 lap 01:44.734 13: 01:49.721
23 BE J. Dewulf (212) YAM 25:41.613 -1 lap -1 lap 01:39.036 13: 01:42.883
24 SI K. Gercar (62) HUS 25:49.077 -1 lap -1 lap 01:43.126 13: 01:54.582
25 BE B. Boulard (474) HON 25:18.178 -2 laps -2 laps 01:44.901 12: 01:54.410
26 US K. Engle (287) SUZ 24:20.682 -3 laps -3 laps 01:44.756 11: 02:01.798
27 IT D. Philippaerts (19) YAM 08:38.512 -10 laps -10 laps 01:40.114 4: 01:53.022
28 JP K. Yamamoto (400) HON 04:28.497 -13 laps -13 laps 02:36.872  


P. Nac MX2 M Tempo Diff Gap Melhor Volta Last Lap
1 FI H. Kullas (151) HUS 24:19.618 +10:39.999 - 01:35.232 14: 01:41.192
2 GB M. Anstie (99) KAW 24:22.667 +00:03.049 +00:03.049 01:34.640 14: 01:39.020
3 LV P. Jonass (41) KTM 24:39.595 +00:19.977 +00:16.928 01:35.457 14: 01:42.110
4 BE B. V. doninck (172) YAM 24:43.102 +00:23.484 +00:03.507 01:35.485 14: 01:40.224
5 US T. Covington (64) KAW 24:52.123 +00:32.505 +00:09.021 01:36.673 14: 01:42.053
6 NL B. Bogers (189) KTM 24:57.817 +00:38.199 +00:05.694 01:36.906 14: 01:39.539
7 CH J. Seewer (91) SUZ 24:59.159 +00:39.541 +00:01.342 01:36.074 14: 01:43.838
8 SI T. Gajser (243) HON 25:00.195 +00:40.577 +00:01.036 01:36.151 14: 01:41.027
9 BE J. Lieber (33) YAM 25:02.384 +00:42.766 +00:02.189 01:36.044 14: 01:41.988
10 NL D. Pootjes (85) KTM 25:08.680 +00:49.062 +00:06.296 01:37.642 14: 01:43.185
11 GB B. Watson (919) KTM 25:11.277 +00:51.659 +00:02.597 01:37.331 14: 01:41.780
12 FR B. Paturel (6) YAM 25:12.199 +00:52.581 +00:00.922 01:38.134 14: 01:40.257
13 NL M. D. Waal (53) KAW 25:30.185 +01:10.567 +00:17.986 01:38.700 14: 01:43.205
14 DE H. Jacobi (29) KTM 25:36.491 +01:16.873 +00:06.306 01:39.309 14: 01:42.186
15 IT I. Monticelli (128) KTM 25:38.600 +01:18.982 +00:02.109 01:38.975 14: 01:45.195
16 EE K. Kutsar (132) KTM 25:41.740 +01:22.122 +00:03.140 01:39.674 14: 01:46.518
17 BE J. Getteman (51) HON 25:58.772 +01:39.154 +00:17.032 01:37.278 14: 01:55.150
18 PL T. Wysocki (831) KTM 26:09.666 +01:50.048 +00:10.894 01:40.266 14: 01:55.412
19 IT S. Bernardini (321) TM 24:30.172 -1 lap -1 lap 01:38.257 13: 01:53.379
20 BG P. Petrov (152) KAW 24:41.922 -1 lap -1 lap 01:37.561 13: 01:45.489
21 GB J. Booker (140) KTM 25:10.601 -1 lap -1 lap 01:43.471 13: 01:46.854
22 NL R. Folkers (144) HUS 25:22.896 -1 lap -1 lap 01:41.985 13: 01:49.263
23 SE A. Lundgren (274) HUS 25:28.310 -1 lap -1 lap 01:41.116 13: 01:48.104
24 RU V. Golovkin (300) KTM 25:33.139 -1 lap -1 lap 01:46.409 13: 01:50.431
25 IT N. Lapucci (122) HON 25:41.094 -1 lap -1 lap 01:46.086 13: 01:50.655
26 NL W. Mars (198) KTM 24:39.304 -2 laps -2 laps 01:45.734 12: 02:01.282
27 BG M. G. Ivanov (97) HUS 24:50.834 -2 laps -2 laps 01:47.567 12: 01:58.665
28 IT D. Bonini (15) HUS 03:42.411 -13 laps -13 laps 01:48.282  
29 CH V. Guillod (92) YAM 04:15.189 -13 laps -13 laps 02:38.034  






Vídeos MotoX Connect



Acompanhe o MotoX no Facebook

Curso MotoX Ric Raspa
Brasil Racing
JPS Racing

© 2000 - 2017 MotoX MX1 Internet